Zurück zum Katalog

CELTEE 1

AktivWissenschaftPO
NORAD 41850·PAYLOAD·🇺🇸 United States

Gestartet Nov 11, 2016 von Vandenberg Space Force Base

Loading…

Nächste Überflüge (nächste 24 Stunden)

TLE

AktuellSource: Space-Track

Epoche: Sep 14, 2026, 14:25 UTC

1 41850U 16067C   26257.60102856  .00004326  00000-0  20191-3 0  9999
2 41850  98.0515 130.2527 0000810  59.0223 301.1090 15.20434928539467

Verfolge CELTEE 1 in Echtzeit mit AllMySat

Download on the App Store